CW9414 Weather Reports


Display with metric or nautical units.
time (UTC)temp
F
wind
direction
speed
MPH
gust
MPH
rain 1hr
in
rain 24hr
in
rain mn
in
humidity
%
barometer
mb
20260831231445 95 143 1.0 2.0 0.00 0.00 0.00 40 1009.6
20260831230444 95 143 0.0 1.0 0.00 0.00 0.00 40 1009.6
20260831225445 94 143 0.0 2.0 0.00 0.00 0.00 42 1009.7
20260831224444 94 143 0.0 1.0 0.00 0.00 0.00 43 1009.8
20260831223445 94 143 0.0 4.0 0.00 0.00 0.00 42 1009.8
20260831222444 94 143 0.0 2.0 0.00 0.00 0.00 42 1009.8
20260831221448 94 144 2.0 2.0 0.00 0.00 0.00 42 1009.8
20260831220444 94 143 1.0 4.0 0.00 0.00 0.00 43 1009.8
20260831215444 94 140 1.0 4.0 0.00 0.00 0.00 45 1010.0
20260831214447 95 109 0.0 2.0 0.00 0.00 0.00 48 1010.3
20260831213446 95 109 3.0 3.0 0.00 0.00 0.00 48 1010.3
20260831212444 96 109 0.0 2.0 0.00 0.00 0.00 47 1010.3
20260831211447 97 93 0.0 2.0 0.00 0.00 0.00 46 1010.3
20260831210444 97 135 0.0 1.0 0.00 0.00 0.00 46 1010.3
20260831205444 96 135 0.0 2.0 0.00 0.00 0.00 46 1010.4
20260831204444 97 135 0.0 4.0 0.00 0.00 0.00 46 1010.7
20260831203444 97 132 0.0 4.0 0.00 0.00 0.00 44 1010.7
20260831202444 98 132 0.0 3.0 0.00 0.00 0.00 42 1010.9
20260831201444 99 130 0.0 4.0 0.00 0.00 0.00 41 1010.9
20260831200448 99 130 0.0 3.0 0.00 0.00 0.00 39 1010.9
20260831195447 99 126 0.0 2.0 0.00 0.00 0.00 40 1011.0
20260831194444 99 126 0.0 2.0 0.00 0.00 0.00 41 1011.3
20260831193447 99 126 2.0 2.0 0.00 0.00 0.00 41 1011.3
20260831192447 98 117 0.0 2.0 0.00 0.00 0.00 42 1011.4
20260831191444 97 118 4.0 5.0 0.00 0.00 0.00 43 1011.7
20260831190444 97 119 2.0 2.0 0.00 0.00 0.00 45 1011.7
20260831185444 97 119 0.0 1.0 0.00 0.00 0.00 44 1011.9
20260831184444 97 123 0.0 3.0 0.00 0.00 0.00 44 1011.9
20260831183444 97 28 2.0 3.0 0.00 0.00 0.00 43 1011.9
20260831182444 97 28 0.0 3.0 0.00 0.00 0.00 45 1012.1
20260831181444 97 27 0.0 3.0 0.00 0.00 0.00 44 1012.4
20260831180447 97 161 1.0 2.0 0.00 0.00 0.00 47 1012.4
20260831175447 96 161 0.0 4.0 0.00 0.00 0.00 46 1012.4
20260831174444 95 74 1.0 4.0 0.00 0.00 0.00 48 1012.8
20260831173444 95 74 0.0 1.0 0.00 0.00 0.00 48 1012.8
20260831172444 94 74 0.0 3.0 0.00 0.00 0.00 50 1013.0
20260831171444 94 71 0.0 2.0 0.00 0.00 0.00 52 1013.0
20260831170444 94 71 3.0 5.0 0.00 0.00 0.00 51 1013.0
20260831165443 93 142 0.0 2.0 0.00 0.00 0.00 55 1012.9
20260831164443 92 142 0.0 3.0 0.00 0.00 0.00 52 1013.0
20260831163443 91 5 1.0 1.0 0.00 0.00 0.00 59 1013.0
20260831162443 90 5 0.0 4.0 0.00 0.00 0.00 61 1013.0
20260831161443 89 121 0.0 1.0 0.00 0.00 0.00 64 1013.1
20260831160444 88 121 2.0 3.0 0.00 0.00 0.00 66 1013.1
20260831155443 87 147 0.0 1.0 0.00 0.00 0.00 67 1013.0
20260831154443 85 147 3.0 4.0 0.00 0.00 0.00 71 1012.9
20260831153447 84 147 0.0 2.0 0.00 0.00 0.00 75 1012.9
20260831152444 84 147 0.0 0.0 0.00 0.00 0.00 78 1012.9
20260831151443 83 147 0.0 0.0 0.00 0.00 0.00 80 1012.9
20260831150446 82 147 0.0 0.0 0.00 0.00 0.00 82 1012.9
20260831145443 82 147 0.0 1.0 0.00 0.00 0.00 84 1012.7
20260831144443 81 147 0.0 1.0 0.00 0.00 0.00 86 1012.7
20260831143444 81 147 0.0 3.0 0.00 0.00 0.00 87 1012.7
20260831142444 81 147 0.0 0.0 0.00 0.00 0.00 88 1012.6
20260831141443 80 147 0.0 1.0 0.00 0.00 0.00 89 1012.4
20260831140443 80 147 0.0 0.0 0.00 0.00 0.00 89 1012.4
20260831135444 79 147 0.0 1.0 0.00 0.00 0.00 89 1012.3
20260831134443 79 147 0.0 0.0 0.00 0.00 0.00 89 1012.3
20260831133446 78 147 0.0 0.0 0.00 0.00 0.00 88 1012.3
20260831132443 78 147 0.0 0.0 0.00 0.00 0.00 88 1012.3
20260831131444 77 147 0.0 0.0 0.00 0.00 0.00 87 1011.9
20260831130443 77 147 0.0 0.0 0.00 0.00 0.00 87 1011.9
20260831125443 77 147 0.0 0.0 0.00 0.00 0.00 86 1011.8
20260831124444 77 147 0.0 0.0 0.00 0.00 0.00 86 1011.6
20260831123443 77 147 0.0 0.0 0.00 0.00 0.00 85 1011.6
20260831122443 77 147 0.0 0.0 0.00 0.00 0.00 85 1011.3
20260831121444 77 147 0.0 0.0 0.00 0.00 0.00 85 1011.2
20260831120444 77 147 0.0 0.0 0.00 0.00 0.00 85 1011.2
20260831115444 77 147 0.0 0.0 0.00 0.00 0.00 85 1011.2
20260831114446 77 147 0.0 0.0 0.00 0.00 0.00 85 1011.2
20260831113443 77 147 0.0 0.0 0.00 0.00 0.00 85 1011.2
20260831112443 77 147 0.0 0.0 0.00 0.00 0.00 84 1011.2
20260831111444 77 147 0.0 0.0 0.00 0.00 0.00 84 1011.2
20260831110443 77 147 0.0 0.0 0.00 0.00 0.00 84 1011.2
20260831105443 77 147 0.0 0.0 0.00 0.00 0.00 84 1011.1
20260831104444 78 147 0.0 0.0 0.00 0.00 0.00 84 1011.2
20260831103443 78 147 0.0 0.0 0.00 0.00 0.00 84 1011.2
20260831102443 78 147 0.0 0.0 0.00 0.00 0.00 84 1011.2
20260831101443 78 147 0.0 0.0 0.00 0.00 0.00 84 1011.3
20260831100443 78 147 0.0 0.0 0.00 0.00 0.00 84 1011.3
20260831095443 78 147 0.0 0.0 0.00 0.00 0.00 84 1011.2
20260831094443 78 147 0.0 0.0 0.00 0.00 0.00 83 1011.2
20260831093443 78 147 0.0 0.0 0.00 0.00 0.00 83 1011.2
20260831092446 78 147 0.0 0.0 0.00 0.00 0.00 83 1011.1
20260831091446 78 147 0.0 0.0 0.00 0.00 0.00 82 1011.2
20260831090444 78 147 0.0 0.0 0.00 0.00 0.00 83 1011.2
20260831085443 79 147 0.0 0.0 0.00 0.00 0.00 83 1011.3
20260831084443 79 147 0.0 0.0 0.00 0.00 0.00 83 1011.3
20260831083444 79 147 0.0 0.0 0.00 0.00 0.00 83 1011.3
20260831082443 77 165 0.0 0.0 0.00 0.00 0.00 89 1011.2
20260831081443 77 165 0.0 0.0 0.00 0.00 0.00 89 1011.3
20260831080443 77 165 0.0 0.0 0.00 0.00 0.00 89 1011.3
20260831075443 77 165 0.0 0.0 0.00 0.00 0.00 89 1011.3
20260831074443 77 165 0.0 0.0 0.00 0.00 0.00 89 1011.3
20260831073443 77 165 0.0 0.0 0.00 0.00 0.00 89 1011.3
20260831072443 77 165 0.0 0.0 0.00 0.00 0.00 89 1011.3
20260831071443 77 165 0.0 0.0 0.00 0.00 0.00 89 1011.4
20260831070443 77 165 0.0 0.0 0.00 0.00 0.00 89 1011.4
20260831065443 77 165 0.0 0.0 0.00 0.00 0.00 89 1011.6
20260831064447 77 165 0.0 0.0 0.00 0.00 0.00 89 1011.8
20260831063446 77 165 0.0 0.0 0.00 0.00 0.00 89 1011.8
20260831062443 77 165 0.0 0.0 0.00 0.00 0.00 89 1011.7
20260831061443 77 165 0.0 0.0 0.00 0.00 0.00 89 1011.8
20260831060443 77 165 0.0 0.0 0.00 0.00 0.00 89 1011.8
20260831055443 77 165 0.0 0.0 0.00 0.00 0.00 89 1011.8
20260831054443 77 165 0.0 0.0 0.00 0.00 0.00 89 1011.6
20260831053443 77 165 0.0 0.0 0.00 0.00 0.00 89 1011.6
20260831052443 77 165 0.0 0.0 0.00 0.00 0.00 89 1011.6
20260831051443 77 165 0.0 0.0 0.00 0.00 0.00 89 1011.4
20260831050446 77 165 0.0 0.0 0.00 0.00 0.00 89 1011.4
20260831045443 77 165 0.0 0.0 0.00 0.00 0.00 89 1011.4
20260831044443 77 165 0.0 0.0 0.00 0.00 0.00 89 1011.3
20260831043443 77 165 0.0 0.0 0.00 0.00 0.00 89 1011.3
20260831042446 77 165 0.0 0.0 0.00 0.00 0.00 89 1011.3
20260831041443 77 165 0.0 0.0 0.00 0.00 0.00 89 1011.2
20260831040443 77 165 0.0 0.0 0.00 0.00 0.00 89 1011.2
20260831035443 77 165 0.0 0.0 0.00 0.00 0.00 89 1011.1
20260831034443 77 165 0.0 0.0 0.00 0.00 0.00 89 1010.9
20260831033443 77 165 0.0 0.0 0.00 0.00 0.00 89 1010.9
20260831032443 77 165 0.0 0.0 0.00 0.00 0.00 89 1010.8
20260831031446 77 165 0.0 0.0 0.00 0.00 0.00 89 1010.7
20260831030442 77 165 0.0 0.0 0.00 0.00 0.00 89 1010.7
20260831025446 77 165 0.0 0.0 0.00 0.00 0.00 89 1010.5
20260831024446 77 165 0.0 0.0 0.00 0.00 0.00 89 1010.2
20260831023442 77 165 0.0 0.0 0.00 0.00 0.00 89 1010.2
20260831022443 77 165 0.0 0.0 0.00 0.00 0.00 89 1010.0
20260831021443 77 165 0.0 0.0 0.00 0.00 0.00 89 1009.7
20260831020443 77 165 0.0 0.0 0.00 0.00 0.00 89 1009.7
20260831015443 77 165 0.0 0.0 0.00 0.00 0.00 89 1009.7
20260831014443 77 165 0.0 0.0 0.00 0.00 0.00 89 1009.7
20260831013443 77 165 0.0 0.0 0.00 0.00 0.00 89 1009.7
20260831012443 77 165 0.0 0.0 0.00 0.00 0.00 89 1009.7
20260831011443 77 165 0.0 0.0 0.00 0.00 0.00 89 1009.6
20260831010443 77 165 0.0 0.0 0.00 0.00 0.00 89 1009.6
20260831005442 77 165 0.0 0.0 0.00 0.00 0.00 89 1009.5
20260831004443 77 165 0.0 0.0 0.00 0.00 0.00 89 1009.2
20260831003443 77 165 0.0 0.0 0.00 0.00 0.00 89 1009.2
20260831002442 77 165 0.0 0.0 0.00 0.00 0.00 89 1009.2
20260831001442 77 165 0.0 0.0 0.00 0.00 0.00 89 1009.2
20260831000443 77 165 0.0 0.0 0.00 0.00 0.00 89 1009.2
20260830235442 77 165 0.0 0.0 0.00 0.00 0.00 89 1009.2
20260830234443 77 165 0.0 0.0 0.00 0.00 0.00 89 1009.1
20260830233446 77 165 0.0 0.0 0.00 0.00 0.00 89 1009.1
20260830232443 77 165 0.0 0.0 0.00 0.00 0.00 89 1009.0